Weather History for Cairns, QU

Change the Weather History Date:

Friday, February 3, 2012

  Actual Average Record
Temperature  
Mean Temperature 82 °F -  
Max Temperature 89 °F 88 °F 95 °F (2013)
Min Temperature 75 °F 74 °F 71 °F (2014)
Cooling Degree Days 17    
Growing Degree Days 32 (Base 50)    
Moisture  
Dew Point 76 °F    
Average Humidity 89    
Maximum Humidity 100    
Minimum Humidity 51    
Precipitation  
Precipitation 2.76 in 0.56 in - ()
Sea Level Pressure  
Sea Level Pressure 29.37 in    
Wind  
Wind Speed 5 mph ()    
Max Wind Speed 13 mph    
Max Gust Speed -    
Visibility 5.2 miles    
Events Rain    
Averages and records for this station are not official NWS values.
T = Trace of Precipitation, MM = Missing Value Source: Averaged Metar Reports

Daily Weather History Graph

Daily Weather History Graph

Search for Another Location

Airport:

Trip Planner

Search our weather history database for the weather conditions in past years. The results will help you decide how hot, cold, wet, or windy it might be!

Date:

Astronomy

Feb. 03, 2012 Rise Set
Actual Time 6:06 AM EST 6:55 PM EST
Civil Twilight 5:43 AM EST 7:18 PM EST
Nautical Twilight 5:16 AM EST 7:44 PM EST
Astronomical Twilight 4:49 AM EST 8:12 PM EST
Moon 2:58 PM EST (2/3) 1:33 AM EST (2/3)
Length of Visible Light 13h 34m
Length of Day
12h 49m
Waxing Gibbous, 76% of the Moon is Illuminated
Feb 3
Waxing Gibbous
Feb 8
Full
Feb 15
Last Quarter
Feb 22
New
Mar 1
First Quarter

Hourly Weather History & Observations

Time (EST) Temp. Heat Index Dew Point Humidity Pressure Visibility Wind Dir Wind Speed Gust Speed Precip Events Conditions
12:00 AM 79 °F - 76 °F 88% 29.40 in - SSE 6.9 mph - -  
12:00 AM 78.8 °F - 77.0 °F 94% 29.39 in 6.2 mi SSE 6.9 mph - N/A   Scattered Clouds
12:30 AM 78.8 °F - 77.0 °F 94% 29.39 in 6.2 mi SSE 6.9 mph - N/A   Scattered Clouds
1:00 AM 79 °F - 76 °F 88% 29.39 in - Calm Calm - -  
1:00 AM 78.8 °F - 77.0 °F 94% 29.39 in 6.2 mi Calm Calm - N/A Rain Light Rain Showers
1:30 AM 78.8 °F - 77.0 °F 94% 29.36 in 6.2 mi South 5.8 mph - N/A   Scattered Clouds
2:00 AM 78.8 °F - 75.2 °F 89% 29.36 in 6.2 mi South 6.9 mph - N/A Rain Light Rain Showers
2:30 AM 78.8 °F - 77.0 °F 94% 29.33 in 6.2 mi SSE 5.8 mph - N/A Rain Light Rain
2:53 AM 78.8 °F - 77.0 °F 94% 29.33 in 3.7 mi South 5.8 mph - N/A Rain Light Rain
3:00 AM 78 °F - 76 °F 94% 29.33 in 3 mi SSE 5.8 mph - -   Overcast
3:00 AM 78.8 °F - 77.0 °F 94% 29.33 in 3.7 mi SSE 5.8 mph - N/A Rain Light Rain
3:30 AM 78.8 °F - 77.0 °F 94% 29.33 in 6.2 mi SSW 2.3 mph - N/A   Mostly Cloudy
4:00 AM 78 °F - 76 °F 94% 29.34 in - Calm Calm - -  
4:00 AM 77.0 °F - 77.0 °F 100% 29.33 in 6.2 mi Calm Calm - N/A   Mostly Cloudy
4:30 AM 77.0 °F - 77.0 °F 100% 29.33 in 6.2 mi Calm Calm - N/A   Mostly Cloudy
5:00 AM 78.8 °F - 77.0 °F 94% 29.33 in 6.2 mi South 4.6 mph - N/A   Mostly Cloudy
5:30 AM 77.0 °F - 77.0 °F 100% 29.33 in 3.7 mi West 2.3 mph - N/A Rain Light Rain
5:39 AM 77.0 °F - 77.0 °F 100% 29.33 in - SW 1.2 mph - N/A   Unknown
6:00 AM 78 °F - 76 °F 94% 29.34 in 4 mi Calm Calm - - Rain Light Rain
6:00 AM 77.0 °F - 77.0 °F 100% 29.33 in 3.7 mi Calm Calm - N/A Rain Light Rain
6:30 AM 77.0 °F - 77.0 °F 100% 29.33 in 6.2 mi West 2.3 mph - N/A   Mostly Cloudy
7:00 AM 78 °F - 76 °F 94% 29.35 in - Calm Calm - -  
7:00 AM 78.8 °F - 77.0 °F 94% 29.33 in 6.2 mi Calm Calm - N/A   Mostly Cloudy
7:30 AM 78.8 °F - 77.0 °F 94% 29.33 in 6.2 mi SSE 3.5 mph - N/A   Mostly Cloudy
8:00 AM 80.6 °F 87.1 °F 77.0 °F 89% 29.36 in 6.2 mi SSE 4.6 mph - N/A   Mostly Cloudy
8:30 AM 80.6 °F 87.1 °F 77.0 °F 89% 29.36 in 6.2 mi South 5.8 mph - N/A   Mostly Cloudy
9:00 AM 82 °F - 77 °F 79% 29.37 in 16 mi SSW 5.8 mph - -   Mostly Cloudy
9:00 AM 82.4 °F 90.9 °F 77.0 °F 84% 29.36 in 6.2 mi SSW 5.8 mph - N/A   Mostly Cloudy
9:30 AM 82.4 °F 90.9 °F 77.0 °F 84% 29.36 in 6.2 mi South 4.6 mph - N/A   Mostly Cloudy
10:00 AM 85 °F - 76 °F 69% 29.38 in - SSE 11.5 mph - -  
10:00 AM 86.0 °F 96.9 °F 77.0 °F 74% 29.36 in 6.2 mi SSE 11.5 mph - N/A   Mostly Cloudy
10:30 AM 86.0 °F 96.9 °F 77.0 °F 74% 29.36 in 6.2 mi SSE 8.1 mph - N/A   Mostly Cloudy
11:00 AM 87.8 °F 99.7 °F 77.0 °F 70% 29.33 in 6.2 mi SSE 8.1 mph - N/A   Mostly Cloudy
11:30 AM 89.6 °F 102.2 °F 77.0 °F 66% 29.33 in 6.2 mi SE 12.7 mph - N/A   Mostly Cloudy
12:00 PM 89 °F - 76 °F 58% 29.33 in 6 mi SSE 12.7 mph - -   Mostly Cloudy
12:00 PM 89.6 °F 102.2 °F 77.0 °F 66% 29.33 in 6.2 mi SSE 12.7 mph - N/A   Mostly Cloudy
12:30 PM 86.0 °F 95.1 °F 75.2 °F 70% 29.33 in 3.7 mi WNW 8.1 mph - N/A Rain Light Rain Showers
1:00 PM 80 °F - 77 °F 89% 29.33 in - West 10.4 mph - -  
1:00 PM 78.8 °F - 77.0 °F 94% 29.33 in 2.5 mi West 10.4 mph - N/A Rain Light Rain Showers
1:19 PM 80.6 °F 87.1 °F 77.0 °F 89% 29.30 in 6.2 mi West 11.5 mph - N/A Rain Rain Showers
1:30 PM 78.8 °F - 77.0 °F 94% 29.33 in 0.9 mi West 11.5 mph - N/A Rain Rain Showers
2:00 PM 78.8 °F - 78.8 °F 100% 29.33 in 0.6 mi ESE 9.2 mph - N/A Rain Rain Showers
2:25 PM 78.8 °F - 77.0 °F 94% 29.33 in 3.1 mi SSW 6.9 mph - N/A Rain Rain Showers
2:30 PM 78.8 °F - 77.0 °F 94% 29.33 in 4.3 mi SW 6.9 mph - N/A Rain Light Rain Showers
2:39 PM 78.8 °F - 77.0 °F 94% 29.30 in 4.3 mi West 6.9 mph - N/A Rain Light Rain Showers
3:00 PM 80 °F - 76 °F 84% 29.32 in 12 mi SW 5.8 mph - -   Overcast
3:00 PM 80.6 °F 87.1 °F 77.0 °F 89% 29.30 in 6.2 mi SW 5.8 mph - N/A Rain Light Rain Showers
3:30 PM 80.6 °F 87.1 °F 77.0 °F 89% 29.33 in 3.7 mi NW 6.9 mph - N/A Rain Light Rain Showers
3:52 PM 78.8 °F - 77.0 °F 94% 29.33 in 4.3 mi SW 2.3 mph - N/A Rain Light Rain Showers
4:30 PM 78.8 °F - 77.0 °F 94% 29.33 in 1.9 mi ESE 8.1 mph - N/A Rain Light Rain Showers
5:00 PM 78.8 °F - 78.8 °F 100% 29.36 in 1.9 mi SE 8.1 mph - N/A Rain Light Rain Showers
5:30 PM 78.8 °F - 77.0 °F 94% 29.36 in 1.9 mi SSE 9.2 mph - N/A Rain Rain
6:00 PM 78 °F - 77 °F 94% 29.39 in 6 mi SSE 4.6 mph - - Rain Light Rain
6:00 PM 77.0 °F - 77.0 °F 100% 29.39 in 6.2 mi SSE 4.6 mph - N/A Rain Light Rain
6:30 PM 78.8 °F - 77.0 °F 94% 29.42 in 5.0 mi Calm Calm - N/A Rain Light Rain
6:47 PM 78.8 °F - 77.0 °F 94% 29.42 in 3.1 mi Calm Calm - N/A Rain Light Rain
7:00 PM 78 °F - 76 °F 94% 29.43 in - Calm Calm - -  
7:00 PM 77.0 °F - 77.0 °F 100% 29.42 in 1.9 mi Calm Calm - N/A Rain Rain
7:30 PM 77.0 °F - 77.0 °F 100% 29.42 in 3.7 mi Calm Calm - N/A Rain Light Rain
8:00 PM 77.0 °F - 73.4 °F 89% 29.44 in 3.7 mi North 3.5 mph - N/A Rain Rain
8:30 PM 77.0 °F - 75.2 °F 94% 29.44 in 5.6 mi NW 5.8 mph - N/A Rain Light Rain
9:00 PM 78 °F - 70 °F 71% 29.49 in 6 mi WNW 10.4 mph - - Rain Light Rain
9:00 PM 77.0 °F - 69.8 °F 78% 29.47 in 3.7 mi WNW 10.4 mph - N/A Rain Light Rain
9:30 PM 75.2 °F - 73.4 °F 94% 29.50 in 3.7 mi South 3.5 mph - N/A Rain Rain
10:00 PM 76 °F - 71 °F 81% 29.52 in - WNW 6.9 mph - -  
10:00 PM 77.0 °F - 71.6 °F 83% 29.50 in 5.0 mi WNW 6.9 mph - N/A Rain Light Rain
10:30 PM 75.2 °F - 69.8 °F 83% 29.50 in 6.2 mi WNW 8.1 mph - N/A   Mostly Cloudy
11:00 PM 77.0 °F - 68.0 °F 74% 29.50 in 6.2 mi NW 10.4 mph - N/A Rain Light Rain
11:30 PM 82.4 °F 83.4 °F 62.6 °F 51% 29.47 in 6.2 mi WNW 12.7 mph - N/A   Mostly Cloudy